Weather History for Hallock, MN

Change the Weather History Date:

Saturday, August 18, 2012

  Actual Average Record
Temperature  
Mean Temperature 60 °F -  
Max Temperature 77 °F 79 °F 98 °F (2003)
Min Temperature 44 °F 52 °F 32 °F (1942)
Degree Days  
Heating Degree Days 4    
Growing Degree Days 10 (Base 50)    
Moisture  
Dew Point 53 °F    
Average Humidity 77    
Maximum Humidity 100    
Minimum Humidity 44    
Precipitation  
Precipitation 0.00 in - - ()
Sea Level Pressure  
Sea Level Pressure 29.99 in    
Wind  
Wind Speed 6 mph (North)    
Max Wind Speed 21 mph    
Max Gust Speed 38 mph    
Visibility 10 miles    
Events Thunderstorm    
Averages and records for this station are not official NWS values.
T = Trace of Precipitation, MM = Missing Value Source: NWS Daily Summary

Daily Weather History Graph

Daily Weather History Graph

Search for Another Location

Airport:

Trip Planner

Search our weather history database for the weather conditions in past years. The results will help you decide how hot, cold, wet, or windy it might be!

Date:

Astronomy

Aug. 18, 2012 Rise Set
Actual Time 6:25 AM CDT 8:36 PM CDT
Civil Twilight 5:51 AM CDT 9:10 PM CDT
Nautical Twilight 5:08 AM CDT 9:53 PM CDT
Astronomical Twilight 4:19 AM CDT 10:41 PM CDT
Moon 7:46 AM CDT (8/18) 8:38 PM CDT (8/18)
Length of Visible Light 15h 19m
Length of Day
14h 10m
New Moon, 1% of the Moon is Illuminated
Aug 18
New Moon
Aug 24
First Quarter
Aug 31
Full
Sep 8
Last Quarter
Sep 15
New

Hourly Weather History & Observations

Time (CDT) Temp. Windchill Dew Point Humidity Pressure Visibility Wind Dir Wind Speed Gust Speed Precip Events Conditions
12:14 AM 57.2 °F - 50.0 °F 77% 29.94 in 10.0 mi SE 6.9 mph - N/A   Mostly Cloudy
12:34 AM 55.4 °F - 48.2 °F 77% 29.94 in 10.0 mi SSE 6.9 mph - N/A   Scattered Clouds
12:54 AM 53.6 °F - 48.2 °F 82% 29.94 in 10.0 mi SSE 6.9 mph - N/A   Scattered Clouds
1:14 AM 53.6 °F - 48.2 °F 82% 29.94 in 10.0 mi SSE 6.9 mph - N/A   Scattered Clouds
1:34 AM 51.8 °F - 48.2 °F 88% 29.94 in 10.0 mi SSE 6.9 mph - N/A   Clear
1:54 AM 51.8 °F - 46.4 °F 82% 29.94 in 10.0 mi SSE 5.8 mph - N/A   Clear
2:14 AM 51.8 °F - 48.2 °F 88% 29.94 in 10.0 mi SSE 6.9 mph - N/A   Clear
2:34 AM 50.0 °F - 46.4 °F 87% 29.94 in 10.0 mi South 6.9 mph - N/A   Clear
2:54 AM 50.0 °F - 46.4 °F 87% 29.94 in 10.0 mi SSE 5.8 mph - N/A   Clear
3:14 AM 48.2 °F - 46.4 °F 93% 29.94 in 10.0 mi SSE 5.8 mph - N/A   Clear
3:54 AM 46.4 °F 45.2 °F 46.4 °F 100% 29.95 in 10.0 mi SSE 3.5 mph - N/A   Clear
4:14 AM 46.4 °F 44.3 °F 46.4 °F 100% 29.95 in 10.0 mi SSE 4.6 mph - N/A   Clear
4:34 AM 46.4 °F 44.3 °F 44.6 °F 93% 29.95 in 10.0 mi SSE 4.6 mph - N/A   Clear
4:54 AM 46.4 °F 45.2 °F 46.4 °F 100% 29.94 in 10.0 mi South 3.5 mph - N/A   Clear
5:14 AM 46.4 °F - 46.4 °F 100% 29.95 in 10.0 mi Calm Calm - N/A   Clear
5:34 AM 44.6 °F - 44.6 °F 100% 29.95 in 10.0 mi Calm Calm - N/A   Clear
5:54 AM 44.6 °F 43.1 °F 44.6 °F 100% 29.96 in 10.0 mi East 3.5 mph - N/A   Clear
6:14 AM 44.6 °F 42.2 °F 44.6 °F 100% 29.96 in 10.0 mi NNW 4.6 mph - N/A   Mostly Cloudy
6:34 AM 44.6 °F - 44.6 °F 100% 29.96 in 7.0 mi Calm Calm - N/A   Scattered Clouds
7:14 AM 44.6 °F - 44.6 °F 100% 29.97 in 10.0 mi Calm Calm - N/A   Clear
7:34 AM 46.4 °F - 46.4 °F 100% 29.97 in 7.0 mi Calm Calm - N/A   Clear
7:54 AM 48.2 °F - 48.2 °F 100% 29.97 in 10.0 mi Calm Calm - N/A   Clear
8:14 AM 51.8 °F - 50.0 °F 94% 29.98 in 10.0 mi Calm Calm - N/A   Clear
8:34 AM 55.4 °F - 51.8 °F 88% 29.98 in 10.0 mi WNW 3.5 mph - N/A   Clear
8:54 AM 57.2 °F - 51.8 °F 82% 29.99 in 10.0 mi NW 3.5 mph - N/A   Clear
9:14 AM 59.0 °F - 53.6 °F 82% 29.99 in 10.0 mi NW 3.5 mph - N/A   Clear
9:34 AM 62.6 °F - 53.6 °F 72% 29.99 in 10.0 mi NNW 4.6 mph - N/A   Clear
9:54 AM 64.4 °F - 53.6 °F 68% 29.99 in 10.0 mi NW 3.5 mph - N/A   Clear
10:14 AM 66.2 °F - 55.4 °F 68% 30.00 in 10.0 mi NNW 4.6 mph - N/A   Clear
10:34 AM 66.2 °F - 57.2 °F 73% 30.00 in 10.0 mi NNW 8.1 mph - N/A   Clear
10:54 AM 69.8 °F - 57.2 °F 64% 30.00 in 10.0 mi North 4.6 mph - N/A   Clear
11:14 AM 71.6 °F - 57.2 °F 60% 30.01 in 10.0 mi NNW 6.9 mph - N/A   Clear
11:34 AM 73.4 °F - 57.2 °F 57% 30.01 in 10.0 mi North 8.1 mph - N/A   Clear
11:54 AM 73.4 °F - 57.2 °F 57% 30.00 in 10.0 mi North 4.6 mph 16.1 mph N/A   Clear
12:14 PM 75.2 °F - 57.2 °F 53% 30.00 in 10.0 mi North 9.2 mph 20.7 mph N/A   Clear
12:34 PM 75.2 °F - 55.4 °F 50% 30.00 in 10.0 mi NNW 10.4 mph 16.1 mph N/A   Clear
12:54 PM 75.2 °F - 55.4 °F 50% 29.99 in 10.0 mi North 6.9 mph 17.3 mph N/A   Clear
1:14 PM 75.2 °F - 55.4 °F 50% 29.99 in 10.0 mi North 9.2 mph 20.7 mph N/A   Clear
1:34 PM 75.2 °F - 55.4 °F 50% 29.99 in 10.0 mi North 13.8 mph - N/A   Clear
1:54 PM 75.2 °F - 55.4 °F 50% 29.99 in 10.0 mi North 13.8 mph - N/A   Scattered Clouds
2:14 PM 77.0 °F - 53.6 °F 44% 29.99 in 10.0 mi North 12.7 mph 17.3 mph N/A   Scattered Clouds
2:34 PM 75.2 °F - 55.4 °F 50% 29.99 in 10.0 mi North 8.1 mph - N/A   Mostly Cloudy
2:54 PM 66.2 °F - 55.4 °F 68% 30.01 in 10.0 mi NW 20.7 mph 38.0 mph N/A   Overcast
3:14 PM 64.4 °F - 57.2 °F 77% 30.01 in 10.0 mi NW 10.4 mph 16.1 mph N/A Thunderstorm Unknown
3:34 PM 64.4 °F - 57.2 °F 77% 30.00 in 10.0 mi NW 6.9 mph - N/A   Light Drizzle
3:54 PM 69.8 °F - 59.0 °F 68% 30.00 in 10.0 mi West 9.2 mph - N/A   Scattered Clouds
4:14 PM 69.8 °F - 59.0 °F 68% 29.99 in 10.0 mi WNW 6.9 mph - N/A   Clear
4:54 PM 71.6 °F - 62.6 °F 73% 29.99 in 10.0 mi WNW 9.2 mph - N/A   Scattered Clouds
5:14 PM 73.4 °F - 57.2 °F 57% 29.99 in 10.0 mi North 13.8 mph - N/A   Mostly Cloudy
5:34 PM 73.4 °F - 55.4 °F 53% 29.99 in 10.0 mi North 12.7 mph 17.3 mph N/A   Scattered Clouds
5:54 PM 73.4 °F - 53.6 °F 50% 29.99 in 10.0 mi North 12.7 mph - N/A   Clear
6:14 PM 73.4 °F - 55.4 °F 53% 29.99 in 10.0 mi North 10.4 mph - N/A   Clear
6:34 PM 73.4 °F - 55.4 °F 53% 30.00 in 10.0 mi North 11.5 mph - N/A   Clear
6:54 PM 68.0 °F - 59.0 °F 73% 30.01 in 10.0 mi NE 10.4 mph 16.1 mph N/A   Light Drizzle
7:14 PM 66.2 °F - 60.8 °F 83% 30.00 in 10.0 mi NE 9.2 mph - N/A   Scattered Clouds
7:34 PM 66.2 °F - 59.0 °F 78% 30.01 in 10.0 mi NE 5.8 mph - N/A   Clear
7:54 PM 66.2 °F - 59.0 °F 78% 30.01 in 10.0 mi North 4.6 mph - N/A   Clear
8:14 PM 64.4 °F - 59.0 °F 83% 30.01 in 10.0 mi North 4.6 mph - N/A   Scattered Clouds
8:34 PM 64.4 °F - 59.0 °F 83% 30.01 in 10.0 mi Calm Calm - N/A   Scattered Clouds
8:54 PM 64.4 °F - 57.2 °F 77% 30.02 in 10.0 mi Calm Calm - N/A   Mostly Cloudy
9:14 PM 62.6 °F - 57.2 °F 82% 30.02 in 10.0 mi Calm Calm - N/A   Overcast
9:34 PM 62.6 °F - 59.0 °F 88% 30.03 in 10.0 mi NNW 3.5 mph - N/A   Overcast
9:54 PM 62.6 °F - 57.2 °F 82% 30.03 in 10.0 mi NNW 5.8 mph - N/A   Scattered Clouds
10:14 PM 60.8 °F - 57.2 °F 88% 30.04 in 10.0 mi NNW 5.8 mph - N/A   Clear
10:34 PM 59.0 °F - 57.2 °F 94% 30.04 in 10.0 mi North 6.9 mph - N/A   Clear
10:54 PM 60.8 °F - 55.4 °F 82% 30.04 in 10.0 mi North 8.1 mph - N/A   Clear
11:14 PM 57.2 °F - 55.4 °F 94% 30.05 in 10.0 mi North 8.1 mph - N/A   Clear
11:54 PM 55.4 °F - 53.6 °F 94% 30.05 in 10.0 mi North 6.9 mph - N/A   Clear